Piarco, Trinidad And Tobago

6:47 AM AST on May 28, 2017 (GMT -0400)
Piarco International

Weather History for TTPP - October, 2012

Change the Weather History Date:

Monday, October 29, 2012

  Actual Average Record
Temperature  
Mean Temperature 85 °F -  
Max Temperature 94 °F 86 °F 94 °F (2012)
Min Temperature 76 °F 73 °F 73 °F (2008)
Cooling Degree Days 20    
Growing Degree Days 35 (Base 50)    
Moisture  
Dew Point 76 °F    
Average Humidity 76    
Maximum Humidity 94    
Minimum Humidity 50    
Precipitation  
Precipitation 0.00 in 0.30 in - ()
Sea Level Pressure  
Sea Level Pressure 29.87 in    
Wind  
Wind Speed 6 mph ()    
Max Wind Speed 16 mph    
Max Gust Speed -    
Visibility 7.9 miles    
Events      
Averages and records for this station are not official NWS values.
T = Trace of Precipitation, MM = Missing Value Source: Averaged Metar Reports

Daily Weather History Graph

Daily Weather History Graph

Search for Another Location

Airport or City:

Trip Planner

Search our weather history database for the weather conditions in past years. The results will help you decide how hot, cold, wet, or windy it might be!

Date:

Astronomy

Oct. 29, 2012 Rise Set
Actual Time 5:56 AM AST 5:41 PM AST
Civil Twilight 5:34 AM AST 6:03 PM AST
Nautical Twilight 5:09 AM AST 6:28 PM AST
Astronomical Twilight 4:44 AM AST 6:53 PM AST
Moon 5:38 PM AST (10/29) 5:38 AM AST (10/29)
Length of Visible Light 12h 29m
Length of Day
11h 45m
Full, 100% of the Moon is Illuminated
Oct 29
Full
Oct 29
Full
Nov 6
Last Quarter
Nov 13
New
Nov 20
First Quarter

Hourly Weather History & Observations

Time (AST) Temp. Heat Index Dew Point Humidity Pressure Visibility Wind Dir Wind Speed Gust Speed Precip Events Conditions
12:00 AM 80.6 °F 86.2 °F 75.2 °F 84% 29.86 in - ESE 9.2 mph - N/A   Clear
1:00 AM 78.8 °F - 75.2 °F 89% 29.86 in 6.2 mi ESE 4.6 mph - N/A   Partly Cloudy
2:00 AM 78 °F - 74 °F 85% 29.86 in 16 mi Calm Calm - -   Scattered Clouds
2:00 AM 77.0 °F - 75.2 °F 94% 29.83 in 6.2 mi Calm Calm - N/A   Partly Cloudy
3:00 AM 77.0 °F - 73.4 °F 89% 29.83 in 6.2 mi East 5.8 mph - N/A   Partly Cloudy
4:00 AM 78.8 °F - 75.2 °F 89% 29.83 in 6.2 mi ESE 3.5 mph - N/A   Partly Cloudy
5:00 AM 78 °F - 74 °F 86% 29.86 in 16 mi ESE 3.5 mph - -   Scattered Clouds
5:00 AM 78.8 °F - 75.2 °F 89% 29.86 in 6.2 mi ESE 3.5 mph - N/A   Partly Cloudy
6:00 AM 77.0 °F - 75.2 °F 94% 29.89 in 6.2 mi Calm Calm - N/A   Partly Cloudy
7:00 AM 80.6 °F 86.2 °F 75.2 °F 84% 29.89 in 6.2 mi East 6.9 mph - N/A   Partly Cloudy
8:00 AM 85 °F - 77 °F 71% 29.92 in 12 mi ESE 9.2 mph - -   Mist
8:00 AM 86.0 °F 96.9 °F 77.0 °F 74% 29.92 in 6.2 mi ESE 9.2 mph - N/A   Partly Cloudy
9:00 AM 87.8 °F 99.7 °F 77.0 °F 70% 29.92 in 6.2 mi ESE 9.2 mph - N/A   Scattered Clouds
10:00 AM 89.6 °F 102.2 °F 77.0 °F 66% 29.92 in 6.2 mi ESE 11.5 mph - N/A   Mostly Cloudy
11:00 AM 90 °F - 76 °F 57% 29.92 in 12 mi ESE 11.5 mph - -   Mostly Cloudy
11:00 AM 91.4 °F 105.1 °F 77.0 °F 63% 29.92 in 6.2 mi ESE 11.5 mph - N/A   Mostly Cloudy
12:00 PM 95.0 °F 109.7 °F 77.0 °F 56% 29.89 in 6.2 mi ESE 11.5 mph - N/A   Mostly Cloudy
1:00 PM 93.2 °F 105.0 °F 75.2 °F 56% 29.86 in 6.2 mi SE 11.5 mph - N/A   Scattered Clouds
2:00 PM 94 °F - 77 °F 50% 29.85 in 11 mi ESE 16.1 mph - -  
2:00 PM 93.2 °F 107.2 °F 77.0 °F 59% 29.83 in 6.2 mi ESE 16.1 mph - N/A   Partly Cloudy
3:00 PM 93.2 °F 107.2 °F 77.0 °F 59% 29.80 in 6.2 mi East 16.1 mph - N/A   Partly Cloudy
4:00 PM 89.6 °F 99.8 °F 75.2 °F 62% 29.80 in 6.2 mi ESE 16.1 mph - N/A   Partly Cloudy
5:00 PM 89.6 °F 99.8 °F 75.2 °F 62% 29.83 in 6.2 mi East 13.8 mph - N/A   Partly Cloudy
6:00 PM 84.2 °F 92.3 °F 75.2 °F 74% 29.83 in 6.2 mi ESE 11.5 mph - N/A   Partly Cloudy
7:00 PM 82.4 °F 90.9 °F 77.0 °F 84% 29.86 in 6.2 mi East 6.9 mph - N/A   Partly Cloudy
8:00 PM 82 °F - 77 °F 81% 29.88 in 12 mi East 6.9 mph - -   Haze
8:00 PM 82.4 °F 90.9 °F 77.0 °F 84% 29.86 in 6.2 mi East 6.9 mph - N/A   Partly Cloudy
9:00 PM 80.6 °F 86.2 °F 75.2 °F 84% 29.89 in 6.2 mi Calm Calm - N/A   Partly Cloudy
10:00 PM 80.6 °F 87.1 °F 77.0 °F 89% 29.89 in 6.2 mi Calm Calm - N/A   Partly Cloudy
11:00 PM 80 °F - 76 °F 83% 29.89 in 15 mi Calm Calm - -   Scattered Clouds
11:00 PM 80.6 °F 86.2 °F 75.2 °F 84% 29.89 in 6.2 mi Calm Calm - N/A   Partly Cloudy